When you browse on this site, cookies collect data to enhance your experience and personalize the content and advertising you see.
Visit our Privacy Policy to learn more. By continuing to use the site, you agree to this use of cookies and data.
  • In Lithuania
  • List of Countries
  • For 7 days
  • Water Temperature
  • Satellite Maps
  • Weather Map
  • Weather Widgets
  • user-avatar
    Login

    Hourly Weather Oran

    Today, 24 May, Friday

    Time Temperature Precipitation Wind Pressure Humidity
    00:00 +23°C° 0 mm 1 mps 750 mmHg 43%
    01:00 +23°C° 0 mm 2 mps 750 mmHg 45%
    02:00 +23°C° 0 mm 2 mps 750 mmHg 46%
    03:00 +21°C° 0 mm 2 mps 750 mmHg 48%
    04:00 +21°C° 0 mm 2 mps 749 mmHg 48%
    05:00 +21°C° 0 mm 2 mps 749 mmHg 48%
    06:00 +23°C° 0 mm 2 mps 749 mmHg 48%
    07:00 +24°C° 0 mm 2 mps 749 mmHg 44%
    08:00 +25°C° 0 mm 2 mps 749 mmHg 39%
    09:00 +27°C° 0 mm 2 mps 749 mmHg 34%
    10:00 +28°C° 0 mm 3 mps 749 mmHg 32%
    11:00 +29°C° 0 mm 3 mps 748 mmHg 30%
    12:00 +30°C° 0 mm 4 mps 748 mmHg 28%
    13:00 +30°C° 0 mm 4 mps 748 mmHg 27%
    14:00 +29°C° 0 mm 4 mps 747 mmHg 26%
    15:00 +29°C° 0 mm 4 mps 747 mmHg 26%
    16:00 +28°C° 0 mm 4 mps 747 mmHg 29%
    17:00 +27°C° 0 mm 3 mps 747 mmHg 32%
    18:00 +26°C° 0 mm 3 mps 747 mmHg 35%
    19:00 +25°C° 0 mm 3 mps 748 mmHg 41%
    20:00 +24°C° 0 mm 3 mps 748 mmHg 47%
    21:00 +22°C° 0 mm 3 mps 748 mmHg 53%
    22:00 +22°C° 0 mm 3 mps 748 mmHg 59%
    23:00 +21°C° 0 mm 4 mps 749 mmHg 65%

    Tomorrow, 25 May, Saturday

    Time Temperature Precipitation Wind Pressure Humidity
    00:00 +20°C° 0 mm 4 mps 749 mmHg 71%
    01:00 +20°C° 0 mm 4 mps 749 mmHg 74%
    02:00 +20°C° 0 mm 4 mps 749 mmHg 77%
    03:00 +19°C° 0 mm 4 mps 748 mmHg 80%
    04:00 +19°C° 0 mm 4 mps 749 mmHg 77%
    05:00 +19°C° 0 mm 4 mps 749 mmHg 75%
    06:00 +19°C° 0 mm 4 mps 749 mmHg 72%
    07:00 +20°C° 0.1 mm 4 mps 750 mmHg 66%
    08:00 +21°C° 0.1 mm 5 mps 750 mmHg 60%
    09:00 +22°C° 0.1 mm 5 mps 750 mmHg 54%
    10:00 +23°C° 0.1 mm 5 mps 751 mmHg 54%
    11:00 +23°C° 0.1 mm 6 mps 751 mmHg 53%
    12:00 +24°C° 0.1 mm 6 mps 751 mmHg 52%
    13:00 +23°C° 0 mm 6 mps 751 mmHg 53%
    14:00 +23°C° 0 mm 6 mps 751 mmHg 54%
    15:00 +23°C° 0 mm 6 mps 751 mmHg 55%
    16:00 +22°C° 0 mm 5 mps 751 mmHg 58%
    17:00 +22°C° 0 mm 5 mps 751 mmHg 61%
    18:00 +21°C° 0 mm 4 mps 751 mmHg 64%
    19:00 +20°C° 0 mm 3 mps 752 mmHg 66%
    20:00 +20°C° 0 mm 3 mps 752 mmHg 69%
    21:00 +19°C° 0 mm 2 mps 753 mmHg 71%
    22:00 +20°C° 0 mm 1 mps 752 mmHg 73%
    23:00 +20°C° 0 mm 1 mps 752 mmHg 74%

    Day after tomorrow, 26 May, Sunday

    Time Temperature Precipitation Wind Pressure Humidity
    00:00 +18°C° 0 mm 0 mps 752 mmHg 76%
    01:00 +17°C° 0 mm 0 mps 752 mmHg 77%
    02:00 +17°C° 0 mm 0 mps 752 mmHg 79%
    03:00 +17°C° 0 mm 0 mps 752 mmHg 80%
    04:00 +17°C° 0 mm 0 mps 752 mmHg 79%
    05:00 +17°C° 0 mm 0 mps 752 mmHg 77%
    06:00 +17°C° 0 mm 0 mps 752 mmHg 76%
    07:00 +20°C° 0 mm 1 mps 752 mmHg 70%
    08:00 +21°C° 0 mm 1 mps 752 mmHg 63%
    09:00 +22°C° 0 mm 1 mps 752 mmHg 57%
    10:00 +23°C° 0 mm 2 mps 752 mmHg 53%
    11:00 +24°C° 0 mm 3 mps 752 mmHg 49%
    12:00 +25°C° 0 mm 4 mps 752 mmHg 45%
    13:00 +26°C° 0 mm 4 mps 752 mmHg 45%
    14:00 +26°C° 0 mm 4 mps 752 mmHg 45%
    15:00 +26°C° 0 mm 5 mps 751 mmHg 45%
    16:00 +25°C° 0 mm 5 mps 751 mmHg 49%
    17:00 +23°C° 0 mm 4 mps 751 mmHg 52%
    18:00 +23°C° 0 mm 4 mps 751 mmHg 56%
    19:00 +22°C° 0 mm 4 mps 751 mmHg 58%
    20:00 +22°C° 0 mm 3 mps 751 mmHg 61%
    21:00 +21°C° 0 mm 2 mps 752 mmHg 64%
    22:00 +21°C° 0 mm 2 mps 751 mmHg 66%
    23:00 +22°C° 0 mm 1 mps 751 mmHg 67%

    27 May, Monday

    Time Temperature Precipitation Wind Pressure Humidity
    00:00 +21°C° 0 mm 1 mps 751 mmHg 68%
    01:00 +21°C° 0 mm 1 mps 750 mmHg 69%
    02:00 +21°C° 0 mm 1 mps 750 mmHg 70%
    03:00 +18°C° 0 mm 0 mps 750 mmHg 71%
    04:00 +21°C° 0 mm 1 mps 750 mmHg 68%
    05:00 +22°C° 0 mm 1 mps 750 mmHg 66%
    06:00 +22°C° 0 mm 1 mps 750 mmHg 63%
    07:00 +24°C° 0 mm 1 mps 750 mmHg 56%
    08:00 +25°C° 0 mm 1 mps 750 mmHg 49%
    09:00 +26°C° 0 mm 1 mps 750 mmHg 43%
    10:00 +28°C° 0 mm 2 mps 750 mmHg 39%
    11:00 +29°C° 0 mm 3 mps 750 mmHg 35%
    12:00 +30°C° 0 mm 3 mps 749 mmHg 31%
    13:00 +30°C° 0 mm 4 mps 749 mmHg 31%
    14:00 +30°C° 0 mm 5 mps 749 mmHg 31%
    15:00 +30°C° 0 mm 5 mps 748 mmHg 31%
    16:00 +30°C° 0 mm 5 mps 748 mmHg 34%
    17:00 +29°C° 0 mm 5 mps 748 mmHg 36%
    18:00 +28°C° 0 mm 5 mps 748 mmHg 39%
    19:00 +27°C° 0 mm 4 mps 748 mmHg 41%
    20:00 +26°C° 0 mm 3 mps 748 mmHg 43%
    21:00 +25°C° 0 mm 3 mps 749 mmHg 45%
    22:00 +25°C° 0 mm 2 mps 749 mmHg 46%
    23:00 +24°C° 0 mm 2 mps 748 mmHg 47%

    28 May, Tuesday

    Time Temperature Precipitation Wind Pressure Humidity
    00:00 +24°C° 0 mm 1 mps 748 mmHg 49%
    01:00 +23°C° 0 mm 1 mps 748 mmHg 49%
    02:00 +23°C° 0 mm 1 mps 748 mmHg 50%
    03:00 +22°C° 0 mm 1 mps 747 mmHg 51%
    04:00 +23°C° 0 mm 1 mps 747 mmHg 49%
    05:00 +24°C° 0 mm 1 mps 747 mmHg 48%
    06:00 +24°C° 0 mm 2 mps 747 mmHg 46%
    07:00 +26°C° 0 mm 1 mps 747 mmHg 41%
    08:00 +27°C° 0 mm 1 mps 747 mmHg 37%
    09:00 +29°C° 0 mm 1 mps 747 mmHg 32%
    10:00 +30°C° 0 mm 2 mps 747 mmHg 31%
    11:00 +31°C° 0 mm 3 mps 747 mmHg 29%
    12:00 +33°C° 0 mm 4 mps 746 mmHg 27%
    13:00 +33°C° 0 mm 4 mps 746 mmHg 27%
    14:00 +33°C° 0 mm 4 mps 746 mmHg 27%
    15:00 +33°C° 0 mm 4 mps 745 mmHg 27%
    16:00 +32°C° 0 mm 4 mps 745 mmHg 28%
    17:00 +30°C° 0 mm 3 mps 745 mmHg 30%
    18:00 +29°C° 0 mm 3 mps 745 mmHg 31%
    19:00 +28°C° 0 mm 2 mps 746 mmHg 33%
    20:00 +27°C° 0 mm 2 mps 746 mmHg 35%
    21:00 +26°C° 0 mm 1 mps 747 mmHg 38%
    22:00 +26°C° 0 mm 2 mps 747 mmHg 41%
    23:00 +25°C° 0 mm 3 mps 747 mmHg 44%

    29 May, Wednesday

    Time Temperature Precipitation Wind Pressure Humidity
    00:00 +25°C° 0 mm 4 mps 747 mmHg 47%
    01:00 +23°C° 0 mm 4 mps 748 mmHg 55%
    02:00 +22°C° 0 mm 5 mps 748 mmHg 64%
    03:00 +21°C° 0 mm 5 mps 748 mmHg 72%
    04:00 +21°C° 0 mm 7 mps 748 mmHg 73%
    05:00 +21°C° 0 mm 8 mps 749 mmHg 74%
    06:00 +19°C° 0 mm 10 mps 749 mmHg 74%
    07:00 +21°C° 0 mm 10 mps 750 mmHg 69%
    08:00 +21°C° 0 mm 11 mps 750 mmHg 64%
    09:00 +22°C° 0 mm 11 mps 751 mmHg 58%
    10:00 +22°C° 0 mm 11 mps 751 mmHg 55%
    11:00 +23°C° 0 mm 10 mps 751 mmHg 52%
    12:00 +23°C° 0 mm 10 mps 752 mmHg 48%
    13:00 +23°C° 0 mm 10 mps 752 mmHg 49%
    14:00 +23°C° 0 mm 10 mps 752 mmHg 49%
    15:00 +23°C° 0 mm 9 mps 752 mmHg 49%
    16:00 +22°C° 0 mm 9 mps 752 mmHg 52%
    17:00 +22°C° 0 mm 8 mps 752 mmHg 55%
    18:00 +21°C° 0 mm 7 mps 752 mmHg 57%
    19:00 +20°C° 0 mm 6 mps 753 mmHg 61%
    20:00 +20°C° 0 mm 6 mps 753 mmHg 65%
    21:00 +19°C° 0 mm 5 mps 754 mmHg 69%
    22:00 +19°C° 0 mm 5 mps 754 mmHg 69%
    23:00 +19°C° 0 mm 4 mps 754 mmHg 69%
    Show more